Wind_Speed
35 27 29 31 29 36 38 42 40 34 29 42 43 45 41 41 45 50 52 57 52 54 56 58 59 59 63 63 67 68 75 80 79 80 75 74 70 68 67 62 58 54 62
35 33 28 31 36 44 43 42 39 34 42 47 49 42 43 46 50 55 57 58 59 61 65 69 69 70 73 74 78 79 85 90 90 87 81 79 81 81 74 71 69 66 61
32 36 33 34 39 44 43 40 40 43 46 50 45 44 50 51 55 60 63 66 68 71 74 76 76 78 81 83 86 94 92 97 95 92 89 78 86 80 87 85 80 78 78
29 31 32 32 40 40 41 46 44 49 51 50 50 52 57 58 63 66 71 74 77 76 81 84 85 89 93 93 98 106 101 112 92 89 87 91 88 88 93 92 89 90 88
29 30 31 31 36 41 40 47 51 51 51 53 57 57 62 67 70 74 77 78 82 84 89 91 96 98 101 105 107 116 116 114 94 85 84 87 95 95 97 95 97 98 94
32 35 37 36 39 42 49 51 49 54 57 60 61 65 71 75 76 78 83 85 89 92 94 97 98 101 106 113 118 119 122 110 101 94 91 86 86 94 96 101 100 104 105
34 39 41 42 46 49 50 51 54 58 61 63 64 69 73 74 77 79 83 86 90 95 99 102 107 110 116 124 125 129 121 109 101 98 98 97 95 93 93 95 102 109 113
44 42 42 47 49 52 52 54 59 62 64 66 68 72 72 76 79 84 88 90 95 100 103 110 113 117 128 129 134 122 115 110 106 103 102 99 103 103 102 102 98 98 106
42 44 49 47 45 47 52 58 62 64 65 70 73 75 78 80 84 94 98 104 106 108 109 113 121 125 132 142 128 118 115 114 109 108 109 106 108 109 109 107 106 106 102
45 39 44 49 52 54 59 62 67 69 71 77 79 79 82 83 93 100 105 109 110 115 117 121 128 140 139 130 119 118 118 116 115 113 115 116 116 111 110 109 111 112 110
47 51 54 61 61 62 64 71 72 74 79 84 83 87 88 95 102 109 112 114 119 122 124 139 148 137 133 125 121 116 111 109 109 112 112 111 112 111 101 108 113 117 119
50 53 56 62 63 65 73 78 77 84 86 87 93 97 100 104 110 117 122 123 128 138 135 139 138 133 126 121 112 103 99 97 96 99 102 101 103 104 102 88 90 106 119
57 56 57 62 72 76 77 81 85 87 90 92 96 101 106 113 117 125 128 132 136 145 147 142 130 126 116 107 100 93 89 87 85 87 92 93 93 92 92 91 83 78 88
52 58 70 74 78 77 83 84 90 94 98 100 104 110 116 119 124 131 133 143 146 153 147 141 125 113 106 100 94 89 84 80 77 81 81 84 88 84 85 83 81 74 69
60 72 77 80 81 84 84 90 94 97 100 105 109 116 122 125 134 137 143 146 155 157 146 127 116 103 98 93 87 83 80 73 67 69 75 73 75 70 72 71 70 69 66
76 80 82 85 84 88 90 98 99 103 107 110 118 120 127 135 140 141 151 155 157 152 137 124 109 96 91 87 83 75 68 65 63 62 66 68 66 63 60 62 63 61 61
73 83 90 88 88 93 97 102 105 108 114 118 128 128 133 141 142 153 154 158 168 145 127 113 98 89 84 79 71 65 62 60 60 58 58 60 61 59 54 54 56 55 58
91 92 97 90 92 98 104 106 110 115 121 126 134 136 136 142 147 156 163 164 156 135 122 101 90 82 75 69 64 62 60 58 58 56 53 54 54 52 48 50 50 54 54
90 95 95 97 104 106 111 113 119 125 130 134 137 140 143 146 154 163 163 161 145 124 103 91 81 76 69 62 59 56 55 56 56 51 49 46 46 46 46 47 49 47 47
100 101 105 107 109 113 116 121 124 130 136 136 139 149 152 154 162 167 172 155 137 113 95 85 76 70 64 59 54 51 50 51 51 48 43 42 41 43 44 46 43 44 43
101 104 108 110 113 117 120 125 129 134 138 142 145 151 157 164 166 170 158 145 123 101 89 81 73 65 59 55 50 48 45 44 46 45 42 40 37 38 39 38 39 41 34
104 106 107 112 117 121 125 127 133 138 145 149 152 157 163 167 165 163 148 129 108 94 83 76 69 62 54 49 47 46 43 41 40 41 41 37 34 33 34 35 36 36 31
107 111 116 123 121 125 130 129 135 142 147 152 153 161 165 166 160 146 131 110 96 87 80 72 65 60 53 47 43 41 40 38 36 37 35 32 31 32 33 32 33 31 29
114 118 118 121 127 131 134 135 143 146 151 155 159 164 165 164 149 132 112 99 89 84 75 69 62 56 50 45 42 40 39 36 34 33 30 29 31 31 30 31 30 29 28
120 120 123 129 133 137 137 144 147 151 155 156 160 165 163 160 137 115 102 91 84 77 68 63 60 53 49 45 39 37 37 35 32 30 27 29 30 29 29 30 28 28 27
124 127 134 136 137 143 146 148 151 155 158 161 164 158 166 141 113 104 92 86 79 72 64 57 53 50 44 43 38 35 34 33 30 28 27 27 29 29 30 29 28 27 25
Wind_Direction
294 290 296 298 290 291 293 297 290 278 277 309 312 307 301 302 298 301 303 306 306 306 306 303 304 303 303 304 305 302 305 300 295 290 278 275 276 278 279 267 261 264 260
293 295 289 293 296 293 290 291 281 280 306 311 304 297 296 301 303 304 303 302 300 303 307 306 307 306 308 306 305 303 303 305 297 293 285 275 270 275 273 265 264 262 262
293 289 298 303 304 292 291 285 280 303 309 305 296 299 305 301 304 303 303 305 306 305 305 307 306 308 305 304 305 308 304 304 295 291 283 271 262 263 262 264 264 262 260
278 287 297 302 298 291 289 295 302 306 307 300 296 300 308 304 301 303 307 306 305 304 304 307 308 309 308 308 305 306 304 306 291 286 278 272 263 257 252 258 260 258 257
283 289 290 293 293 291 295 299 301 302 302 300 304 306 305 306 306 306 305 305 305 303 305 307 311 309 309 308 308 311 308 306 292 283 273 266 264 259 254 244 247 252 253
285 288 290 292 288 285 294 297 303 305 305 307 306 306 305 304 302 302 302 303 307 310 309 308 308 308 308 307 308 306 308 302 293 285 279 271 263 258 256 253 242 241 245
279 282 288 289 292 298 297 298 302 304 306 304 303 299 301 306 307 307 308 308 309 307 306 308 310 311 312 310 308 307 305 298 289 282 278 273 269 264 257 252 252 247 242
281 289 289 296 299 299 301 298 299 301 300 303 305 307 309 309 310 311 311 310 309 310 312 313 315 315 313 311 310 305 300 294 289 283 277 272 268 262 260 257 252 249 248
281 284 285 288 294 295 295 297 300 304 306 310 310 309 312 313 311 313 314 313 314 315 311 315 315 314 314 314 307 300 295 291 286 280 275 269 265 262 260 258 256 255 249
282 286 295 297 293 296 297 298 302 302 304 306 307 312 311 311 313 315 316 316 316 315 316 316 316 315 314 309 299 293 289 286 282 278 274 272 269 263 261 258 256 255 254
288 287 290 296 294 291 295 301 305 303 304 306 311 313 316 317 317 316 316 318 317 320 321 321 318 316 310 301 295 292 288 284 280 277 278 276 276 275 266 258 255 254 254
287 287 290 293 294 293 297 304 305 308 311 312 314 318 318 315 316 317 317 319 323 325 321 321 316 313 304 298 295 292 288 284 281 277 277 276 276 275 276 268 259 255 254
287 288 289 289 296 300 304 305 312 311 313 315 316 317 315 315 316 318 321 323 324 326 322 318 315 314 304 299 298 295 290 287 283 277 276 276 275 274 275 275 274 263 257
282 285 296 298 301 305 308 310 311 311 312 315 315 315 316 318 317 321 324 326 325 324 323 317 314 311 306 301 298 296 293 288 282 278 274 271 272 273 273 273 272 271 262
287 293 296 298 302 305 308 309 310 311 311 313 314 317 317 317 322 323 326 325 323 325 321 317 314 310 303 299 296 293 291 287 281 276 276 273 272 270 269 270 267 264 260
296 296 297 300 301 305 303 306 307 311 312 314 316 314 319 323 324 323 325 325 324 324 318 319 314 307 301 299 297 294 290 288 284 281 277 276 275 272 268 268 266 263 257
295 296 300 302 303 301 303 307 310 311 315 314 318 318 320 322 322 325 325 324 325 321 321 316 311 306 302 299 296 295 294 292 288 284 279 278 277 275 271 266 264 261 254
293 294 299 299 299 303 306 309 310 314 314 316 320 320 319 320 321 324 323 325 323 320 319 314 310 307 303 299 299 299 296 293 289 286 282 278 275 271 267 262 259 256 257
295 299 299 299 302 305 307 310 313 314 317 316 317 318 319 320 321 323 323 323 322 319 316 313 311 308 306 304 302 298 294 291 289 287 284 281 277 272 265 260 258 257 256
298 300 302 302 305 305 308 309 311 313 316 315 315 317 320 320 319 321 323 322 321 318 316 314 312 310 309 307 303 298 296 294 292 291 285 281 274 266 263 261 260 256 255
296 299 304 302 303 305 308 308 309 311 316 316 316 318 321 319 318 321 323 321 319 317 317 314 312 312 310 307 304 301 298 294 292 290 286 279 273 268 264 262 258 257 253
296 300 302 302 303 305 308 308 310 312 314 317 317 319 318 318 321 321 322 318 317 317 316 314 313 313 310 308 304 302 300 297 292 287 284 283 276 267 264 261 260 258 251
295 298 299 302 304 304 308 310 310 312 313 315 316 316 318 320 320 321 319 316 316 317 315 313 313 313 312 309 305 304 300 296 291 285 284 280 272 265 262 261 257 254 249
295 297 299 300 303 306 307 308 311 313 313 313 313 315 318 320 321 319 316 314 316 317 314 313 312 313 311 309 309 307 303 299 292 287 285 277 268 265 262 257 255 253 247
296 296 297 299 303 306 307 309 310 312 312 313 313 314 318 320 317 315 313 314 315 315 313 312 312 313 311 310 311 307 301 298 294 290 282 273 269 265 261 256 254 253 245
295 296 299 300 301 304 306 308 309 310 310 311 313 315 317 315 313 313 315 313 313 313 312 312 310 309 309 310 310 306 299 296 294 289 279 272 270 265 261 259 255 254 247
Height
10748 10750 10750 10746 10746 10745 10744 10743 10742 10739 10738 10736 10732 10729 10727 10724 10722 10719 10715 10711 10706 10703 10700 10696 10691 10687 10684 10680 10674 10669 10665 10663 10657 10655 10652 10651 10647 10645 10645 10645 10646 10644 10639
10739 10740 10743 10741 10738 10736 10734 10734 10731 10730 10730 10728 10725 10721 10718 10714 10711 10706 10702 10697 10692 10688 10684 10678 10672 10666 10663 10658 10654 10649 10645 10641 10633 10626 10624 10629 10628 10626 10623 10621 10624 10628 10623
10732 10730 10733 10732 10729 10727 10726 10724 10722 10722 10721 10718 10715 10712 10708 10703 10698 10693 10686 10680 10675 10669 10664 10658 10653 10647 10641 10636 10627 10621 10616 10617 10610 10600 10594 10597 10602 10599 10598 10599 10598 10604 10604
10728 10726 10725 10724 10720 10718 10716 10715 10713 10712 10710 10706 10703 10700 10696 10691 10686 10679 10671 10663 10656 10648 10642 10636 10629 10622 10614 10606 10600 10593 10584 10577 10573 10570 10566 10561 10564 10563 10567 10564 10571 10573 10579
10720 10718 10716 10715 10712 10710 10707 10704 10702 10700 10698 10694 10691 10686 10681 10676 10669 10661 10654 10646 10639 10633 10624 10613 10604 10594 10582 10571 10562 10554 10542 10533 10527 10525 10526 10526 10525 10529 10531 10537 10537 10538 10547
10711 10708 10707 10705 10703 10700 10696 10694 10690 10687 10683 10680 10676 10671 10666 10660 10654 10647 10639 10628 10618 10608 10599 10591 10585 10575 10563 10551 10539 10527 10514 10498 10488 10483 10481 10484 10489 10491 10491 10498 10502 10500 10508
10701 10699 10696 10693 10690 10686 10682 10680 10676 10672 10669 10666 10662 10657 10650 10644 10636 10629 10622 10613 10603 10591 10578 10566 10557 10545 10531 10517 10503 10489 10477 10466 10458 10449 10444 10443 10445 10449 10454 10457 10464 10469 10472
10689 10689 10686 10680 10676 10671 10667 10664 10663 10661 10658 10654 10647 10640 10634 10626 10618 10610 10602 10594 10585 10571 10555 10539 10523 10511 10501 10480 10460 10444 10437 10425 10414 10409 10405 10407 10404 10403 10407 10414 10420 10429 10442
10680 10679 10676 10672 10669 10664 10659 10654 10651 10647 10641 10636 10631 10624 10614 10606 10598 10589 10576 10562 10550 10536 10524 10509 10494 10482 10464 10444 10421 10405 10392 10382 10374 10365 10360 10361 10361 10361 10365 10370 10377 10383 10397
10668 10665 10663 10660 10657 10655 10651 10647 10642 10635 10628 10623 10616 10608 10598 10587 10575 10560 10548 10537 10524 10512 10493 10475 10461 10445 10426 10402 10382 10368 10354 10342 10330 10321 10314 10311 10311 10323 10328 10332 10336 10340 10348
10655 10652 10650 10647 10643 10637 10633 10630 10624 10618 10610 10601 10591 10583 10571 10556 10544 10535 10523 10509 10495 10474 10458 10438 10417 10393 10369 10350 10336 10322 10310 10300 10289 10280 10272 10272 10266 10269 10291 10296 10297 10301 10303
10642 10638 10633 10628 10623 10619 10616 10611 10604 10595 10585 10576 10565 10553 10543 10532 10522 10510 10494 10475 10457 10439 10416 10399 10377 10348 10324 10304 10288 10280 10270 10260 10253 10245 10239 10237 10233 10234 10234 10256 10267 10270 10266
10625 10623 10619 10612 10607 10601 10597 10590 10580 10572 10562 10552 10542 10532 10521 10509 10495 10481 10462 10440 10419 10402 10384 10358 10332 10305 10279 10264 10250 10245 10236 10227 10222 10215 10208 10207 10205 10206 10206 10210 10221 10237 10241
10610 10606 10600 10594 10587 10581 10575 10567 10558 10548 10539 10530 10521 10510 10496 10482 10469 10450 10427 10405 10386 10369 10345 10319 10293 10264 10244 10229 10219 10211 10204 10200 10194 10186 10184 10181 10175 10181 10179 10184 10190 10199 10209
10590 10586 10579 10573 10567 10560 10553 10546 10536 10528 10518 10508 10496 10483 10469 10455 10432 10413 10395 10376 10358 10335 10307 10280 10257 10235 10216 10201 10192 10186 10177 10172 10170 10163 10154 10155 10153 10158 10158 10161 10164 10170 10178
10573 10566 10560 10553 10546 10540 10534 10525 10515 10503 10492 10480 10469 10456 10439 10419 10401 10382 10365 10348 10324 10298 10273 10245 10222 10208 10189 10175 10166 10161 10153 10148 10144 10140 10134 10130 10131 10134 10137 10138 10141 10147 10152
10551 10545 10538 10531 10526 10520 10511 10501 10489 10477 10464 10454 10441 10423 10407 10391 10372 10354 10334 10314 10289 10262 10236 10216 10194 10181 10166 10154 10145 10136 10130 10124 10119 10117 10114 10111 10110 10112 10116 10117 10120 10125 10128
10529 10523 10516 10510 10504 10495 10486 10474 10464 10452 10442 10425 10409 10395 10381 10365 10344 10325 10305 10279 10255 10229 10209 10190 10171 10157 10146 10136 10125 10116 10109 10103 10098 10095 10095 10094 10093 10094 10097 10099 10101 10104 10110
10505 10499 10492 10485 10478 10471 10461 10449 10438 10426 10411 10397 10385 10371 10354 10335 10315 10297 10272 10250 10223 10203 10183 10166 10151 10137 10125 10115 10107 10101 10093 10085 10081 10079 10077 10078 10076 10077 10080 10081 10084 10090 10095
10482 10475 10468 10462 10456 10446 10435 10424 10412 10399 10389 10375 10361 10345 10328 10308 10291 10267 10246 10219 10197 10178 10160 10144 10132 10120 10107 10098 10090 10083 10077 10069 10066 10064 10064 10063 10062 10062 10065 10067 10071 10076 10081
10462 10455 10448 10441 10431 10423 10413 10402 10390 10379 10364 10352 10336 10319 10300 10284 10262 10240 10216 10195 10174 10157 10141 10127 10114 10104 10093 10083 10077 10070 10064 10058 10052 10050 10049 10049 10050 10050 10052 10056 10058 10062 10067
10442 10433 10424 10416 10409 10401 10393 10382 10369 10355 10340 10324 10310 10292 10277 10255 10235 10211 10189 10169 10154 10139 10123 10111 10098 10088 10080 10072 10063 10057 10052 10047 10043 10039 10037 10037 10039 10040 10041 10043 10047 10051 10056
10417 10411 10402 10396 10387 10379 10370 10358 10344 10330 10315 10300 10284 10270 10249 10230 10208 10189 10170 10149 10135 10122 10107 10096 10084 10074 10066 10059 10053 10047 10041 10037 10034 10030 10029 10029 10028 10029 10030 10033 10038 10042 10047
10397 10389 10380 10372 10363 10354 10343 10332 10321 10306 10292 10277 10261 10244 10227 10203 10185 10168 10152 10133 10119 10106 10094 10082 10071 10062 10054 10048 10042 10036 10031 10027 10024 10022 10022 10020 10019 10021 10023 10026 10030 10034 10040
10372 10364 10357 10348 10337 10328 10318 10307 10296 10282 10269 10254 10237 10221 10200 10182 10164 10145 10131 10116 10103 10094 10084 10071 10059 10052 10043 10037 10033 10027 10022 10018 10015 10015 10014 10012 10011 10013 10015 10018 10022 10028 10035
10349 10341 10332 10323 10314 10303 10294 10282 10270 10257 10243 10228 10213 10195 10179 10162 10144 10128 10110 10097 10090 10080 10071 10062 10052 10042 10036 10029 10024 10019 10014 10010 10009 10008 10007 10005 10004 10006 10007 10010 10016 10021 10028